{"data":{"norad_id":65327,"epoch":"2026-05-25T03:57:16.337088Z","epoch_age_seconds":57201,"freshness":"FRESH","line1":"1 65327U 25189E   26145.16477242  .00011314  00000+0  39347-3 0  9997","line2":"2 65327  53.1593 211.6584 0001074  80.9977 279.1145 15.30204753 42814","mean_motion":15.30204753,"eccentricity":0.0001074,"inclination_deg":53.1593,"raan_deg":211.6584,"arg_perigee_deg":80.9977,"mean_anomaly_deg":279.1145,"bstar":0.00039347,"rev_number":4281,"period_min":94.105053403922,"perigee_km":474.46482936671,"apogee_km":475.93692634287,"semimajor_km":6853.3378778548,"source":"CELESTRAK","updated_at":"2026-05-25T13:38:20.758743Z"}}